Home > Weather > Scottsdale > Past weeks

Flag for USA Past Weather in Scottsdale, Arizona, USA — Yesterday and Last 2 Weeks

Now
93 °F

Sunny.


Feels Like: 93 °F
Forecast: 81 / 93 °F
Wind: 5 mph from South

Location: Scottsdale Airport

Current Time: Jun 30, 2016 at 7:50:12 PM

Latest Report: Jun 30, 2016 at 6:53 PM


Visibility: 10 mi

Pressure: 29.77 "Hg

Humidity: 33%

Dew Point: 60 °F

Location of ScottsdaleLocation

Past Weather in Scottsdale — Graph

°F

Scottsdale Temperature Yesterday

Maximum temperature yesterday: 104 °F (at 5:53 PM)
Minimum temperature yesterday: 75 °F (at 10:53 PM)
Average temperature yesterday: 94 °F

High & Low Weather Summary for the Past Weeks

 TemperatureHumidityPressure
High116 °F (Jun 19, 3:53 PM)79% (Jun 29, 10:53 PM)29.95 "Hg (Jun 29, 10:53 PM)
Low74 °F (Jun 18, 4:53 AM)4% (Jun 18, 3:53 PM)29.63 "Hg (Jun 19, 6:53 PM)
Average96 °F20%29.80 "Hg
* Reported Jun 15 6:53 PM — Jun 30 6:53 PM, Scottsdale, Weather by CustomWeather, © 2016

Note: Actual official high and low records may vary slightly from our data, if they occured in-between our weather recording intervals... More about our weather records

Advertising

Scottsdale Weather History for the Previous 24 Hours

Scroll right to see more
 ConditionsComfort  
Time TempWeatherWind HumidityBarometerVisibility
6:53 PM
Thu, Jun 30
93 °FSunny.5 mph33%29.77 "Hg10 mi
5:53 PM92 °FPassing clouds.6 mph35%29.76 "Hg10 mi
4:53 PM91 °FPassing clouds.7 mph39%29.78 "Hg10 mi
3:53 PM92 °FLight rain. Sunny.7 mph38%29.80 "Hg10 mi
2:53 PM90 °FSunny.5 mph39%29.83 "Hg10 mi
1:53 PM90 °FSunny.3 mph41%29.85 "Hg10 mi
12:53 PM88 °FPassing clouds.3 mph43%29.88 "Hg10 mi
11:53 AM86 °FSunny.5 mph51%29.90 "Hg10 mi
10:53 AM85 °FSunny.N/A55%29.91 "Hg10 mi
7:53 AM81 °FScattered clouds.No wind58%29.90 "Hg10 mi
6:53 AM79 °FSunny.3 mph67%29.90 "Hg10 mi
5:53 AM79 °FSunny.3 mph69%29.90 "Hg10 mi
4:53 AM79 °FClear.3 mph67%29.88 "Hg10 mi
3:53 AM78 °FClear.6 mph71%29.88 "Hg10 mi
2:53 AM80 °FClear.7 mph62%29.86 "Hg10 mi
1:53 AM85 °FPassing clouds.15 mph45%29.83 "Hg10 mi
12:53 AM80 °FLight rain. Passing clouds.3 mph67%29.80 "Hg10 mi
11:53 PM
Wed, Jun 29
78 °FLight rain. Partly cloudy.3 mph76%29.81 "Hg10 mi
10:53 PM75 °FHeavy rain. Mostly cloudy.9 mph79%29.91 "Hg2 mi
9:53 PM86 °FPassing clouds.14 mph45%29.78 "Hg10 mi
8:53 PM96 °FPassing clouds.6 mph29%29.74 "Hg10 mi
7:53 PM101 °FPassing clouds.7 mph21%29.73 "Hg10 mi
Weather by CustomWeather, © 2016

See weather overviewHow to use our weather pages